sat.trackr.live / text

‹ back to catalog

STARLINK-31956

NORAD 59930 · 2024-106J

PAYLOAD ACTIVE UNKNOWN

§ Identity

Operator
Country
US
Launch date
2024-06-01
Launch site
AFETR
Launch vehicle
Mass (kg)
RCS (m²)

Purposes: comms

External: N2YO · Heavens-Above · Gunter

§ Orbital elements

Epoch: 2026-09-21T09:27:31.334688Z

Period
94.27 min
Inclination
43.0022°
Eccentricity
0.0001317
Mean motion
15.27580185 rev/d
Perigee alt
482.1 km
Apogee alt
484.0 km
Semi-major
6,861.2 km
B*
3.7465e-5
RAAN
307.2565°
Arg perigee
264.7932°
Mean anomaly
95.2769°
Rev number
13,045

§ Raw data

STARLINK-319561 59930U 24106J   26264.39411267  .00000769  00000+0  37465-4 0  99922 59930  43.0022 307.2565 0001317 264.7932  95.2769 15.27580185130455

JSON: /api/v1/satellites/59930 · /tle

For live sub-satellite position, see the globe view (requires WebGL).

§ Visibility from observer

Set your observer location to see the next 7 days of passes ≥ 10°. The values pass through the URL so the page stays shareable.

No JS? Fill the form by hand. The geolocation button needs JavaScript.